Back to catalog

STARLINK-35415

AliveCommunicationsVLEO
NORAD 65885·PAYLOAD·🇺🇸 United States

Launched Oct 7, 2025 from Cape Canaveral Space Force Station

Loading…

Next Passes (next 24 hours)

TLE

FreshSource: CelesTrak SupGP

Epoch: Sep 14, 2026, 15:51 UTC

1 65885C 25224D   26257.66090278  .00035524  00000+0  10499-2 0  2577
2 65885  53.1575 209.1600 0001495  92.7722 109.9127 15.34361746    16

Track STARLINK-35415 in real time with AllMySat

Download on the App Store